EHI
2 2 1 1 0 0 1 0 0 0 0 0 0 1 1 2 1 0 2 8 16 19 17 18 22 22 20 17 15 13 11 9 7 3 1 1 0 1 1 1 0 0 0
1 1 1 1 0 0 1 0 0 0 0 0 0 1 2 2 1 0 1 5 13 18 18 19 23 25 23 21 18 16 13 12 10 7 4 3 1 1 1 1 0 0 0
2 1 0 0 0 0 0 0 0 0 0 0 0 1 2 3 2 1 1 2 7 14 17 18 21 23 23 23 22 20 17 16 14 11 9 7 5 3 2 1 0 0 0
3 2 0 0 0 0 0 0 0 0 0 0 0 0 1 3 3 3 2 2 3 7 11 15 18 20 21 22 23 22 21 18 16 15 13 11 10 8 6 3 1 0 0
2 1 0 0 0 0 0 0 0 0 0 0 0 0 1 2 3 3 3 3 4 5 7 9 15 18 20 21 21 21 22 21 19 19 17 15 14 13 11 7 4 1 0
1 1 0 0 0 0 0 0 0 1 1 0 0 0 0 1 1 2 2 3 5 7 6 7 10 13 17 20 20 20 21 21 20 21 20 18 16 15 14 11 6 2 0
1 1 0 0 0 0 0 0 1 1 1 1 0 0 0 0 0 0 0 1 3 6 7 6 5 6 10 15 17 18 20 20 19 20 19 17 15 14 14 12 8 3 1
0 0 0 0 0 0 0 1 2 1 1 1 1 0 0 0 0 0 0 0 1 3 5 5 3 3 4 6 9 13 17 19 19 18 17 15 13 12 12 12 10 6 2
1 1 0 0 0 1 2 2 2 2 1 2 1 0 0 0 0 0 0 0 0 1 3 4 4 3 2 1 3 8 14 18 19 19 17 15 13 12 12 11 10 7 4
3 2 1 1 1 2 3 3 2 2 2 2 3 1 1 0 0 0 0 0 0 1 3 4 5 5 3 1 1 5 10 14 16 16 16 14 12 11 11 11 9 6 4
5 4 3 3 2 2 4 4 3 2 2 3 4 3 2 1 1 0 0 0 0 1 2 2 4 5 4 2 1 3 6 8 9 10 11 11 10 9 8 9 8 6 5
7 6 6 5 4 4 5 6 5 3 3 3 4 4 4 3 2 1 0 0 0 0 0 0 1 4 4 3 1 2 4 4 4 4 6 7 7 6 5 5 6 6 6
9 8 8 7 7 9 10 9 7 6 6 5 6 6 4 3 2 1 0 0 0 0 0 0 0 2 3 2 2 2 3 2 1 1 3 3 3 3 3 3 3 4 4
10 9 10 10 10 14 16 14 11 10 9 8 8 7 5 3 1 0 0 0 0 1 1 0 0 0 1 1 1 1 1 0 0 0 1 1 1 1 1 1 1 1 1
9 9 9 10 12 16 20 19 16 13 10 7 7 7 6 4 2 1 0 0 1 2 2 1 0 0 0 0 0 0 0 0 0 0 0 0 0 0 0 0 0 0 0
8 8 9 10 12 16 20 20 18 14 9 6 5 6 5 5 3 1 1 1 2 3 3 2 1 1 1 1 1 0 0 0 0 0 0 0 0 0 0 0 0 0 0
9 9 10 11 13 17 19 19 18 16 12 7 5 5 5 5 3 3 2 3 3 3 4 3 2 2 2 2 1 1 1 0 0 0 0 0 0 0 0 0 0 0 0
11 11 12 14 16 17 19 19 19 19 16 10 6 5 5 4 3 3 3 4 3 4 4 4 4 3 3 2 1 1 1 0 0 0 0 0 0 0 0 0 0 0 0
14 14 15 17 19 19 19 19 20 20 18 12 8 7 5 5 4 3 4 5 4 5 5 6 5 4 4 3 1 0 0 0 0 0 0 0 0 0 0 0 0 0 0
15 14 13 15 17 19 20 21 21 20 17 12 10 8 7 7 6 5 4 5 6 7 7 7 6 6 5 3 1 0 0 0 0 1 0 0 0 0 0 0 0 0 0
14 12 10 10 13 16 17 19 20 19 16 13 11 10 10 10 9 5 3 4 6 8 9 8 7 6 4 3 2 1 0 0 0 0 0 0 0 0 0 0 0 0 0
13 11 8 9 11 11 11 12 14 16 15 14 12 11 11 10 8 4 2 3 4 5 8 7 5 5 4 3 2 1 0 0 0 0 0 0 0 0 0 0 0 0 0
12 10 8 9 9 7 5 5 6 8 10 11 12 12 10 8 5 3 2 2 1 2 4 4 3 3 2 1 1 0 0 0 0 0 0 0 0 0 0 0 0 0 0
11 9 8 8 7 5 4 3 2 2 4 6 8 10 9 6 3 3 3 2 1 0 1 1 1 1 1 0 0 0 0 0 0 0 0 0 0 0 0 0 0 0 0
10 10 9 8 7 6 4 3 1 0 1 1 3 6 7 5 3 3 3 3 2 1 0 0 0 0 0 0 0 0 0 0 0 0 0 0 0 0 0 0 0 0 0
10 10 9 8 7 6 5 3 1 0 0 0 1 4 5 5 3 2 3 3 2 1 0 0 0 0 0 0 0 0 0 0 0 0 0 0 0 0 0 0 0 0 0
Wind_Speed
3 2 2 1 2 2 2 2 2 3 3 3 2 2 3 4 4 4 3 10 12 12 12 12 12 12 11 11 11 10 10 10 10 9 9 9 9 9 9 8 8 8 7
3 3 2 2 2 2 2 2 3 2 2 1 2 2 3 3 4 4 4 6 12 12 12 12 12 12 11 11 11 11 10 11 10 10 10 10 10 9 9 9 9 8 7
3 2 2 2 2 2 2 1 1 1 1 1 2 2 2 3 4 5 5 4 5 10 13 12 12 12 12 12 12 11 11 11 10 10 10 10 10 9 9 9 9 8 8
3 2 2 2 2 1 1 1 1 1 1 1 2 2 2 2 3 4 4 4 4 4 8 13 13 12 12 12 12 12 12 11 11 10 10 10 10 9 9 9 9 8 8
4 3 2 2 1 1 0 1 0 1 1 1 2 2 2 2 2 3 3 5 5 5 4 8 13 13 13 13 13 12 12 12 11 11 10 10 10 10 10 9 9 9 9
3 2 2 2 1 1 0 0 1 1 1 2 2 2 2 2 1 2 3 4 4 6 6 6 6 8 13 12 12 12 11 11 11 11 11 11 10 9 9 9 9 9 9
3 3 2 1 1 1 1 1 1 0 1 1 1 2 3 2 2 2 3 2 4 5 5 6 5 4 5 11 12 12 12 11 11 11 11 10 10 9 8 8 8 8 9
3 3 3 2 2 1 0 1 0 0 1 0 1 1 2 4 3 2 2 3 3 3 4 6 5 5 4 3 6 11 11 11 11 10 10 10 10 9 9 9 8 8 8
4 3 3 3 2 2 2 2 1 2 1 1 1 2 1 2 3 3 3 2 2 2 3 4 5 5 6 4 4 8 11 10 9 9 8 8 8 8 8 8 8 7 7
4 4 3 3 3 2 3 2 2 2 2 1 1 1 2 3 1 3 3 3 2 3 3 3 4 4 5 4 5 7 9 9 8 8 8 7 7 6 6 7 7 7 7
3 4 4 3 3 3 3 3 2 2 2 2 2 1 0 1 2 2 3 4 3 2 2 3 3 3 4 4 3 6 9 9 9 8 7 7 6 6 6 6 6 6 6
2 3 3 3 4 3 4 4 3 3 2 2 2 2 1 1 2 2 2 3 3 3 2 2 2 2 3 3 5 6 9 10 9 8 7 6 5 5 5 6 6 6 6
3 4 4 3 4 4 4 3 3 3 2 2 2 2 2 2 2 2 2 2 2 3 2 2 2 2 2 2 3 6 7 7 8 7 7 6 6 5 5 5 5 5 5
4 4 4 4 5 4 4 3 3 3 3 3 3 3 2 2 2 2 2 2 1 2 2 3 1 1 2 2 3 5 3 6 7 7 7 7 6 6 5 4 4 3 3
4 4 4 4 5 5 5 4 3 3 3 3 4 3 2 2 2 2 2 3 3 2 3 3 2 2 1 2 3 2 3 6 7 7 7 7 6 6 5 5 4 3 3
4 4 4 4 4 4 4 4 3 3 3 3 3 3 3 2 2 2 2 2 2 3 3 3 2 2 1 1 3 2 3 5 7 7 7 7 7 6 6 5 4 4 3
4 4 4 4 4 4 4 4 4 4 4 4 4 3 4 3 2 2 1 1 1 2 2 3 2 1 0 1 1 1 2 2 3 6 7 6 6 6 6 5 5 4 4
5 5 4 4 5 5 4 5 5 5 5 5 5 4 4 3 3 3 2 2 2 2 2 3 2 1 1 1 1 2 2 2 2 5 6 6 6 6 6 5 5 5 4
4 4 4 5 5 5 5 5 5 6 6 6 5 5 5 4 4 3 3 2 2 1 2 2 2 1 1 0 0 1 1 0 1 2 4 4 5 5 5 5 5 5 5
5 5 5 5 5 5 5 5 5 5 5 5 5 6 6 5 5 4 3 3 2 1 1 1 1 1 1 1 1 0 1 1 1 1 2 2 3 4 5 5 5 5 5
5 5 4 4 4 4 5 5 5 6 5 5 5 5 6 6 6 5 3 3 2 2 1 1 1 1 1 1 1 1 1 1 2 1 1 1 1 1 3 4 5 6 6
4 3 4 4 5 5 6 7 6 5 5 5 6 5 6 5 5 5 5 5 5 4 3 2 2 2 3 2 2 2 1 0 2 1 1 2 1 2 2 3 5 7 7
4 4 4 4 5 5 6 6 7 5 5 5 6 5 5 4 5 3 3 3 3 5 6 5 4 4 4 4 3 2 2 2 3 3 1 2 1 2 3 4 7 7 7
3 4 4 4 4 5 5 5 5 5 4 5 5 6 6 5 4 4 3 2 2 3 3 3 4 5 5 4 4 4 3 2 1 2 2 2 2 2 2 2 5 7 6
3 4 3 3 4 5 5 5 5 2 3 5 5 5 5 5 7 6 4 3 2 3 3 3 4 4 5 5 4 2 1 1 1 2 1 2 2 1 1 2 3 5 6
4 4 4 4 5 5 5 5 4 2 3 3 3 4 6 7 7 7 6 5 4 4 2 2 2 3 2 2 4 4 4 3 2 2 2 2 1 0 1 2 2 2 2
Wind_Direction
185 196 205 209 226 229 216 225 242 257 260 257 238 206 203 196 197 195 199 198 197 198 200 202 202 204 205 207 208 209 210 211 208 208 210 213 216 217 217 216 218 221 222
180 186 198 212 225 223 222 219 228 239 248 235 249 228 212 201 195 202 204 204 204 203 207 208 208 210 211 212 215 216 218 218 215 214 215 216 220 221 222 222 222 224 224
171 177 193 214 226 220 216 212 245 250 262 254 265 254 220 210 196 204 204 205 209 211 211 213 214 215 215 217 221 223 224 223 220 219 219 221 224 225 223 224 226 226 229
175 176 190 225 235 221 192 183 219 260 288 275 271 265 238 226 214 207 201 201 207 214 218 219 219 218 220 222 226 227 225 224 221 219 218 219 222 223 224 226 227 230 234
178 175 197 231 230 215 211 231 155 193 244 269 266 265 259 236 231 227 212 206 209 213 216 220 218 219 222 227 230 230 227 224 223 221 220 220 220 222 222 224 227 231 235
184 172 201 237 223 170 223 251 229 240 233 250 282 298 285 268 243 240 233 221 215 217 215 218 216 225 228 229 232 233 229 227 225 222 221 223 223 223 222 225 230 233 235
195 185 198 217 200 179 214 222 209 315 301 290 8 328 319 304 273 243 240 235 228 224 214 216 214 216 226 228 232 232 230 229 226 224 222 223 223 223 222 225 231 234 234
199 195 191 203 200 182 224 229 150 23 303 333 131 52 344 335 320 275 257 232 238 236 221 219 214 214 216 213 225 226 228 229 229 227 224 223 224 223 224 228 229 232 234
198 198 193 197 201 182 201 220 195 178 240 287 161 145 150 258 300 309 293 269 254 234 231 224 219 217 216 216 219 224 223 223 224 224 222 222 223 222 222 225 229 231 236
211 203 196 195 198 193 205 220 194 188 180 247 282 211 192 185 198 303 310 298 275 239 232 232 221 211 215 219 219 214 214 212 215 216 219 220 221 219 222 227 231 234 237
229 217 198 193 199 201 207 212 208 200 190 197 216 230 234 220 186 189 282 307 314 285 249 229 218 209 206 210 213 216 209 207 212 214 218 222 223 223 225 229 235 240 242
239 233 213 203 205 206 209 210 207 208 207 203 208 201 189 209 225 201 237 271 286 286 279 247 214 208 208 209 221 220 211 208 207 210 213 218 220 222 226 231 238 244 246
226 233 226 214 214 211 206 198 200 214 213 208 213 213 207 212 206 193 202 252 272 285 301 292 240 210 208 201 222 221 219 211 202 201 203 207 212 216 220 226 236 245 247
221 225 222 221 220 212 209 195 202 215 211 216 229 222 222 228 206 194 193 193 269 296 297 279 287 232 219 203 217 212 215 208 205 200 200 202 206 210 211 216 224 239 251
227 222 221 223 221 212 207 197 207 220 220 224 233 233 231 240 225 218 205 185 181 238 275 273 276 272 233 206 205 194 196 204 204 203 202 206 208 208 207 208 214 225 236
229 222 224 224 223 219 216 206 210 216 217 235 236 240 248 245 241 233 220 206 188 190 240 261 250 266 250 221 199 197 210 203 201 201 204 205 205 208 210 212 215 221 231
225 225 227 224 220 218 218 214 223 224 228 242 246 236 246 243 240 241 232 216 203 180 225 270 263 292 286 261 243 229 214 200 202 204 208 209 208 209 211 214 218 222 227
230 227 225 224 223 221 217 216 224 228 226 235 242 240 247 246 240 240 226 229 225 203 198 249 276 287 268 236 214 217 220 204 203 207 206 208 207 211 213 216 220 221 224
236 233 224 223 227 225 220 223 226 231 230 231 231 233 242 236 239 238 226 231 232 224 192 207 256 274 276 236 66 279 247 266 218 209 203 202 205 211 215 220 219 219 224
230 234 231 227 224 225 223 227 230 234 237 234 227 229 232 226 230 230 228 228 221 219 207 208 247 276 279 284 142 216 312 308 269 239 225 210 213 219 222 222 219 219 223
231 232 231 238 234 231 234 227 228 233 233 233 232 232 233 227 229 225 222 208 196 200 207 218 240 256 269 261 225 216 238 285 289 230 224 252 226 232 228 224 220 220 221
228 223 229 239 241 244 246 234 223 233 231 230 232 236 237 232 234 227 225 210 193 197 206 209 224 232 241 231 220 209 197 211 279 251 164 258 204 233 236 222 222 222 223
217 227 233 238 244 249 254 246 233 225 224 224 228 229 238 232 214 209 222 228 234 230 208 199 215 227 222 217 199 215 222 216 237 236 167 257 241 242 244 234 223 223 227
217 228 237 239 242 253 253 255 247 230 231 233 227 223 222 224 216 193 194 214 245 255 240 218 216 228 226 215 199 200 208 221 277 269 172 217 248 244 251 249 231 226 232
235 240 235 237 243 257 249 243 234 226 234 242 238 228 212 217 225 203 185 204 240 268 273 246 236 238 235 222 199 158 166 156 264 273 227 179 243 267 275 264 257 236 239
234 245 244 242 240 247 249 236 219 218 236 249 252 243 226 218 219 206 191 193 216 239 247 292 293 289 263 235 212 188 184 188 211 249 234 173 215 187 297 277 266 258 247